Location: Colombier
(46.9671°N, 6.8566°E)
Time: 21:07:26
(UTC+00:00)

Daily predictions for brighter satellites

Satellite Brightness Start Highest point End
(mag) Time Altitude Azimuth Time Altitude Azimuth Time Altitude Azimuth
ATLAS 2AS CENTAUR R/B 4.4 19:58:50 10° NW 20:05:31 30° NNE 20:11:46 10° E
COSMOS 2428 3.8 20:04:55 10° SSE 20:09:20 24° ESE 20:13:46 10° NE
Cosmos 1844 4.0 20:04:12 10° NNW 20:09:57 63° ENE 20:15:36 10° SE
Cosmos 1703 3.7 20:07:00 10° SSE 20:10:41 43° E 20:14:24 10° NNE
Resurs 1-3 4.4 20:07:08 10° S 20:11:24 51° W 20:15:42 10° NNW
Cosmos 2322 4.2 20:06:36 10° S 20:11:54 41° ESE 20:17:14 10° NE
Cosmos 1745 Rocket 4.0 20:06:09 10° S 20:12:20 77° E 20:18:37 10° NNE
MetOp-B 4.2 20:08:11 10° SSE 20:13:31 73° ENE 20:18:52 10° N
SL-08 ROCKET BODY 4.4 20:08:17 10° S 20:14:13 80° E 20:20:18 10° N
Cosmos 2263 Rocket 4.2 20:10:49 10° NW 20:15:11 24° WSW 20:19:31 10° SSW
Cosmos 1953 Rocket 4.3 20:13:55 10° SSE 20:17:47 33° E 20:21:41 10° NNE
Cosmos 2237 Rocket 4.1 20:19:04 10° ESE 20:20:42 11° E 20:22:20 10° ENE
Cosmos 2219 Rocket 2.9 20:16:09 10° SSE 20:21:02 32° ESE 20:25:58 10° NE
ATLAS CENTAUR R/B 2.4 20:17:47 10° NNW 20:21:09 31° NE 20:24:26 10° ESE
ERS-1 Rocket 3.8 20:17:07 10° SE 20:21:44 38° ENE 20:26:22 10° N
Cosmos 1818 3.6 20:17:02 10° SSW 20:22:28 84° SE 20:27:57 10° NE
Cosmos 2360 Rocket 2.2 20:17:48 10° SSW 20:23:27 88° ESE 20:29:10 10° NNE
Cosmos 2333 4.5 20:18:21 10° S 20:23:44 48° ESE 20:29:12 10° NE
USA 215 3.8 20:18:18 10° ENE 20:24:07 33° SE 20:29:55 10° SSW
SPOT 5 3.8 20:23:17 10° SE 20:27:50 36° ENE 20:32:11 10° N
Atlas Centaur 2 3.9 20:27:17 10° SW 20:30:56 17° S 20:34:39 11° SE
Landsat 7 3.9 20:26:31 10° SSE 20:31:15 75° ENE 20:36:02 10° N
Cosmos 1825 Rocket 3.6 20:28:19 10° S 20:32:44 72° E 20:37:12 10° NNE
Cosmos 2333 Rocket 2.6 20:29:26 10° S 20:34:47 45° ESE 20:40:13 10° NE
CZ-2C R/B 4.2 20:30:25 10° N 20:35:25 39° WNW 20:40:17 10° SW
GEOS 3 Rocket 3.8 20:34:35 10° NE 20:39:56 58° SE 20:45:13 10° SSW
SL-16 R/B 4.1 20:38:57 10° WSW 20:44:04 34° NW 20:49:13 10° NNE
Spot 2 Rocket 3.6 20:39:47 10° S 20:44:52 78° WSW 20:50:01 10° NNW
IGS 5A 3.6 20:42:33 10° S 20:46:42 76° WSW 20:50:53 10° NNW
Cosmos 1315 Rocket 3.5 20:42:48 10° N 20:46:44 43° ENE 20:49:46 16° SE
ATLAS 5 CENTAUR R/B 2.1 20:47:55 10° SW 20:52:03 64° NW 20:56:44 10° NE
CARTOSAT-1 3.7 20:49:41 15° SSE 20:53:14 65° ENE 20:57:31 10° N
USA 81 4.2 20:48:47 10° SSE 20:53:53 59° E 20:59:04 10° NNE
Cosmos 2278 Rocket 3.0 20:48:52 10° NNW 20:54:13 40° NE 20:58:50 13° ESE
Cosmos 1844 Rocket 3.3 20:51:02 10° NW 20:56:25 50° WSW 21:01:37 11° S
Cosmos 1709 Rocket 4.1 20:50:59 10° S 20:57:16 88° W 21:03:42 10° N
USA 267 3.9 20:50:59 10° E 20:57:19 53° NNE 21:03:40 10° NW
Meteor 1-11 4.2 20:58:03 10° S 21:03:41 84° E 21:09:24 10° NNE
SPOT 1/Viking Rocket 3.8 21:00:43 11° S 21:05:34 67° WSW 21:10:45 10° NNW
Cosmos-2242 4.0 21:03:22 10° NNW 21:07:31 44° W 21:11:39 10° SSW
Cosmos 1400 Rocket 4.0 21:04:31 10° NNW 21:08:14 38° W 21:11:53 10° SSW
Cosmos 2221 3.0 21:08:24 10° N 21:12:39 47° ENE 21:15:14 21° SE
Cosmos 2184 Rocket 4.3 21:08:52 16° SSE 21:13:37 50° E 21:19:40 10° NNE
Lacrosse 5 rocket 4.0 21:11:30 10° NW 21:14:37 20° N 21:17:38 10° NE
Resurs 01 Rocket 4.0 21:12:13 10° SW 21:15:16 18° W 21:18:19 10° NW
Terra 1.8 21:14:58 20° SSE 21:18:16 75° ENE 21:23:03 10° N
SAR-Lupe-2 4.2 21:15:32 10° N 21:19:04 57° WNW 21:22:35 10° SSW
TSX-5 4.0 21:24:25 10° NNW 21:27:52 56° ENE 21:30:04 24° SE
Cosmos 2058 3.5 21:27:38 25° SE 21:29:26 39° E 21:33:19 10° NNE
NOSS 3-4 (A) 4.2 21:22:58 10° NW 21:29:46 59° NE 21:36:03 15° ESE
NOSS 3-4 (C) 4.2 21:23:04 10° NW 21:29:52 59° NE 21:36:11 15° ESE
NOSS 3-3 (A) 4.0 21:33:21 10° SW 21:39:14 81° NW 21:45:57 10° NE
NOSS 3-3 (C) 4.0 21:33:27 10° SW 21:39:21 81° NW 21:46:04 10° NE
Cosmos 1825 3.7 21:39:57 20° ESE 21:40:39 21° E 21:43:35 10° NE
Cosmos 1980 3.8 21:41:49 19° S 21:45:42 57° ESE 21:51:15 10° NE
JB-3 4.2 21:42:31 10° NNE 21:46:22 69° E 21:48:04 31° S
Meteor 2-17 Rocket 4.4 21:43:29 20° S 21:47:44 75° E 21:53:47 10° NNE
Aureole 2 Rocket 4.3 21:46:11 10° NNE 21:48:00 15° ENE 21:48:50 14° ENE
Cosmos 1076 Rocket 3.6 21:47:32 30° SSE 21:49:25 58° E 21:53:38 10° NNE
Nadezhda 3 Rocket 4.1 21:45:10 10° N 21:51:33 67° E 21:55:18 26° SSE
COSMOS 2428 3.3 21:47:34 10° SW 21:53:09 59° WNW 21:58:47 10° NNE
Cosmos 2154 Rocket 4.0 21:49:47 24° SSE 21:53:37 65° E 21:59:45 10° NNE
Cosmos 2084 4.3 21:50:07 10° NW 21:54:16 39° WSW 21:56:03 27° S
Cosmos 2151 4.0 21:55:43 27° ESE 21:56:51 31° E 22:00:38 10° NNE
ATLAS 2AS CENTAUR R/B 2.9 21:50:08 10° NW 21:57:48 75° NE 22:02:39 22° SE
DELTA 2 R/B (1) 4.1 21:53:27 10° SW 21:58:28 35° SSE 22:01:15 22° ESE
Thor Agena Rocket 3.9 21:54:34 10° NNE 21:59:28 45° E 22:01:29 30° SSE
Cosmos 2074 Rocket 4.1 21:54:31 16° SSW 21:59:36 75° W 22:05:51 10° N
ATLAS CENTAUR R/B 2.4 21:56:48 10° WNW 21:59:56 27° WSW 22:00:56 23° SW
ERS-1 Rocket 4.4 21:56:48 13° SSW 22:00:34 31° W 22:05:02 10° NNW
Cosmos 1869 3.8 21:56:47 10° NNW 22:00:40 52° W 22:02:34 27° SSW
BREEZE-M DEB (TANK) 2.1 21:57:17 10° WNW 22:02:00 63° N 22:03:23 24° E
Genesis I 3.3 22:00:58 38° S 22:02:05 54° ESE 22:05:54 10° NE
Cosmos 2237 Rocket 2.1 21:59:40 20° SSW 22:03:43 74° ESE 22:09:25 10° NNE
Cosmos 1842 Rocket 4.4 22:00:05 10° NNW 22:04:12 42° W 22:06:35 22° SSW
Cosmos 2219 Rocket 3.3 21:59:30 10° SW 22:04:50 44° NW 22:10:13 10° NNE
SPOT 5 4.3 22:02:26 15° SSW 22:05:55 31° W 22:10:11 10° NW
Cosmos 1371 Rocket 4.2 22:00:58 10° NNW 22:06:13 67° ENE 22:08:51 30° SE
USA 215 3.3 22:00:59 10° NE 22:07:35 83° NW 22:14:07 10° WSW
Spot 4 4.1 22:06:50 31° SE 22:08:59 60° ENE 22:13:42 10° N
Cosmos 2344 3.6 22:05:02 17° SSW 22:10:51 57° ESE 22:18:34 10° NE
Cosmos 158 Rocket 3.7 22:09:33 28° SSW 22:12:08 78° ESE 22:17:03 10° NNE
Cosmos 1151 Rocket 4.3 22:10:26 10° NNE 22:14:14 29° ENE 22:15:44 23° ESE
Cosmos 2112 Rocket 4.0 22:12:33 26° SSW 22:15:36 78° ESE 22:21:00 10° NNE
Elektron 1 4.2 22:15:07 27° SW 22:16:48 87° SE 22:22:03 10° NE
CZ-4C R/B 4.4 22:12:20 10° NNW 22:18:17 31° NNE 22:25:05 10° E
Atlas Centaur 2 4.4 22:15:52 10° SW 22:17:12 12° SSW 22:17:12 12° SSW
Cosmos 2333 Rocket 3.8 22:14:01 10° WSW 22:19:11 35° NW 22:24:26 10° NNE
ALOS 2 3.5 22:18:57 27° ESE 22:20:39 38° ENE 22:24:44 10° N
Iridium 2 3.6 22:20:59 10° N 22:24:49 84° W 22:25:48 49° S
Cosmos 1892 3.7 22:26:26 25° SW 22:28:12 42° WNW 22:31:51 10° N
NOSS 0 Rocket 4.3 22:22:52 10° SW 22:28:58 64° WNW 22:35:08 10° NNE
EO 1 Del DPAF 3.1 22:25:22 10° NNE 22:29:08 74° ESE 22:29:55 53° S
Cosmos 2056 Rocket 3.5 22:24:38 10° NNW 22:30:05 89° ENE 22:32:26 36° SSE
GP-B 3.7 22:27:39 10° NNE 22:31:54 43° E 22:33:05 35° SE
Cosmos 1295 Rocket 4.4 22:29:34 27° SSW 22:33:07 83° W 22:39:16 10° N
Cosmos 1606 3.0 22:32:47 10° N 22:36:38 55° ENE 22:37:25 45° ESE
Cosmos 2278 Rocket 3.1 22:33:06 10° NW 22:38:16 37° WSW 22:40:40 25° SSW
Cosmos 1408 3.2 22:37:57 36° SW 22:38:59 48° WNW 22:42:29 10° N
USA 267 3.3 22:36:39 29° SSE 22:40:14 67° SW 22:46:47 10° NW
Cosmos 962 Rocket 4.5 22:37:13 30° S 22:40:36 89° E 22:47:01 10° N
Cosmos 2297 3.8 22:35:23 10° NNW 22:41:09 74° ENE 22:43:51 32° SE
Cosmos 44 3.0 22:40:50 48° SSE 22:41:39 58° ESE 22:46:01 10° NE
Cosmos 1943 Rocket 3.2 22:36:29 10° NNW 22:41:50 40° NE 22:45:29 19° ESE
MOS 1-B Rocket 4.3 22:34:58 10° NNE 22:42:42 88° ESE 22:46:38 28° SSW
Gbstr 26 Del rocket 4.2 22:44:20 23° E 22:44:20 23° E 22:46:18 10° ENE
Cosmos 1680 Rocket 4.1 22:39:45 17° SW 22:43:45 56° WNW 22:49:00 10° NNE
SL-16 R/B 2.2 22:46:35 36° S 22:48:48 63° ESE 22:54:26 10° NNE
Cosmos 371 Rocket 3.5 22:44:41 10° NNW 22:49:32 63° ENE 22:51:21 36° SE
IRIDIUM 104 4.4 22:49:57 39° SSE 22:51:49 64° E 22:57:00 10° N
CREW DRAGON DEMO-1 DEB 3.0 22:53:16 64° WNW 22:53:31 69° NNW 22:56:35 10° ENE
APEX 3.6 22:51:23 10° NNW 22:53:52 34° NE 22:53:52 34° NE
Lacrosse 5 rocket 3.1 22:51:14 10° NW 22:54:49 29° NNE 22:58:13 10° E
Terra 4.1 22:54:05 10° WSW 22:56:34 14° W 22:59:04 10° WNW
Cosmos 1452 Rocket 3.9 22:51:48 10° NNW 22:57:00 58° ENE 22:59:20 31° SE
Cosmos 1515 Rocket 4.1 22:54:44 10° N 22:58:57 46° ENE 23:00:08 37° ESE
IRIDIUM 114 4.3 22:59:06 41° S 23:00:58 77° E 23:06:12 10° N
Cosmos 1766 Rocket 3.5 23:01:32 48° SSW 23:02:43 83° W 23:07:10 10° N
Cosmos 1328 Rocket 3.4 23:00:47 10° N 23:05:08 89° E 23:06:06 54° S
Okean 3 Rocket 3.8 23:07:34 40° SW 23:09:00 62° W 23:13:25 10° N
IRIDIUM 103 4.3 23:08:14 41° S 23:10:06 89° W 23:15:22 10° N
Meteor 2-3 Rocket 3.7 23:12:54 39° S 23:15:02 74° E 23:20:45 10° NNE
Cosmos 1340 2.5 23:15:33 71° S 23:15:57 89° E 23:19:44 10° NNE
Cosmos 1825 3.7 23:14:44 24° WSW 23:16:00 29° WNW 23:19:22 10° NNW
Cosmos 864 Rocket 4.4 23:16:18 36° S 23:19:06 90° S 23:25:27 10° N
Cosmos 2228 Rocket 3.9 23:15:33 10° N 23:19:58 44° ENE 23:21:26 33° ESE
Cosmos 2218 Rocket 4.0 23:17:43 34° SSW 23:20:42 82° W 23:27:03 10° N
NOSS 3-4 (C) 4.5 23:14:11 10° NW 23:20:43 40° WSW 23:23:36 30° SSW
Aureole 2 Rocket 3.9 23:19:08 10° NW 23:20:49 23° WNW 23:20:49 23° WNW
Cosmos 2366 rocket 4.0 23:21:57 34° SSW 23:24:56 80° W 23:31:19 10° N
Meteor 1-26 Rocket 4.3 23:19:58 10° NNW 23:26:01 84° W 23:28:23 39° S
Cosmos 2369 Rocket 2.5 23:24:46 10° NNW 23:30:20 62° ENE 23:33:18 28° SE
Cosmos 1743 Rocket 3.7 23:29:40 49° SE 23:30:29 60° E 23:34:47 10° NNE
SL-4 R/B 3.5 23:33:31 15° NNW 23:33:31 15° NNW 23:34:03 10° NNW
Cosmos 44 Rocket 4.4 23:32:07 26° ESE 23:32:17 26° ESE 23:36:13 10° ENE
Cosmos 304 Rocket 3.8 23:28:34 10° NNW 23:33:25 78° ENE 23:35:00 43° SE
Cosmos 1821 Rocket 4.3 23:30:58 32° SSE 23:33:28 52° E 23:39:22 10° NNE
YAOGAN 11 4.0 23:33:15 51° SSE 23:34:20 83° ENE 23:38:47 10° NNW
Helios 1A 2.9 23:34:08 58° S 23:34:52 78° WSW 23:39:02 10° NNW
Cosmos 1933 4.0 23:31:11 10° NNW 23:35:00 42° W 23:35:34 39° WSW
COSMOS 2455 2.8 23:33:04 10° NW 23:39:08 81° WSW 23:41:47 36° SSE
ATLAS 2AS CENTAUR R/B 3.8 23:42:01 10° NW 23:48:03 28° WSW 23:50:03 24° SW
Cosmos 2237 Rocket 4.2 23:43:51 10° W 23:48:23 24° NW 23:52:56 10° N
USA 215 4.4 23:44:04 10° NE 23:50:11 43° NNW 23:56:16 10° W
Cosmos 1812 3.8 23:46:49 10° N 23:50:25 37° ENE 23:51:25 31° ESE
Cosmos 1151 Rocket 4.3 23:48:01 10° NNW 23:51:44 28° W 23:52:34 26° WSW
Cosmos 1782 2.8 23:48:41 10° NNW 23:52:37 63° W 23:53:04 57° SW
Cosmos 1408 Rocket 4.4 23:52:07 33° WSW 23:53:26 41° WNW 23:57:38 10° N
CZ-2D R/B 4.2 23:51:29 10° NE 23:54:38 16° E 23:57:20 11° ESE
